Flag for Cabo Verde Weather past 2 weeks in Santa Maria, Cabo Verde

Now
77 °F

Partly sunny.


Feels Like: 79 °F
Forecast: 75 / 83 °F
Wind: 9 mph from Northeast

Location: Sal

Current Time: Jul 28, 2015 at 7:30:32 AM

Latest Report: Jul 28, 2015 at 7:00 AM


Visibility: N/A

Pressure: 29.92 "Hg

Humidity: 74%

Dew point: 68 °F

Location of Santa MariaLocation

Historic Weather in Santa Maria — Graph

°F

Santa Maria temperature yesterday

Maximum temperature yesterday: 86 °F (at 12:00 PM)
Minimum temperature yesterday: 75 °F (at 1:00 AM)
Average temperature yesterday: 79 °F

Past Weeks' High & Low Weather Summary

 TemperatureHumidityPressure
High88 °F (Jul 17, 1:00 PM)94% (Jul 17, 1:00 AM)30.07 "Hg (Jul 17, 1:00 AM)
Low73 °F (Jul 13, 6:00 AM)38% (Jul 19, 4:00 PM)29.86 "Hg (Jul 24, 4:00 PM)
Average79 °F72%29.96 "Hg
* Reported Jul 13 6:00 AM — Jul 28 6:00 AM, Santa Maria, Weather by CustomWeather, © 2015

Note: Actual official high and low records may vary slightly from our data, if they occured in-between our weather recording intervals... More about our weather records

Advertising

Santa Maria weather history for previous 24 hours

 ConditionsComfort  
Time TempWeatherWind HumidityBarometerVisibility
6:00 AM
Tue, Jul 28
77 °FPartly sunny.7 mph69%29.92 "HgN/A
5:00 AM77 °FPartly sunny.10 mph69%29.92 "HgN/A
4:00 AM77 °FPassing clouds.10 mph74%29.89 "HgN/A
3:00 AM77 °FPassing clouds.8 mph74%29.92 "HgN/A
2:00 AM77 °FPassing clouds.9 mph69%29.92 "HgN/A
1:00 AM77 °FPassing clouds.8 mph74%29.95 "HgN/A
12:00 AM77 °FPassing clouds.6 mph74%29.95 "HgN/A
11:00 PM
Mon, Jul 27
77 °FPassing clouds.7 mph74%29.95 "HgN/A
10:00 PM77 °FPassing clouds.8 mph74%29.95 "HgN/A
9:00 PM77 °FPassing clouds.9 mph74%29.95 "HgN/A
8:00 PM77 °FPassing clouds.9 mph74%29.92 "HgN/A
7:00 PM79 °FPassing clouds.12 mph70%29.92 "HgN/A
6:00 PM81 °FPassing clouds.13 mph66%29.92 "HgN/A
5:00 PM82 °FPartly sunny.14 mph62%29.89 "HgN/A
4:00 PM82 °FPartly sunny.14 mph62%29.89 "HgN/A
3:00 PM84 °FScattered clouds.13 mph58%29.92 "HgN/A
2:00 PM84 °FPartly sunny.14 mph58%29.95 "HgN/A
1:00 PM84 °FPartly sunny.12 mph58%29.95 "HgN/A
12:00 PM86 °FPartly sunny.12 mph55%29.95 "HgN/A
11:00 AM82 °FPartly sunny.9 mph62%29.98 "HgN/A
10:00 AM81 °FPartly sunny.8 mph66%29.98 "HgN/A
9:00 AM81 °FPartly sunny.12 mph70%29.98 "HgN/A
8:00 AM77 °FScattered clouds.12 mph79%29.95 "HgN/A
7:00 AM77 °FScattered clouds.10 mph79%29.95 "HgN/A
Weather by CustomWeather, © 2015

See weather overviewHow to use our weather pages